^^
Datos históricos de la estación: Murcia-Puente Tocinos
Diario Informe para Julio 28, 2019 Unidades:  Métrico    Inglés   Ambas
Diario Semanal Mensual Anual Configurable
  Máximo: Mínimo: Media:
Temperatura: 32.1 °C 24.8 °C 28.7 °C
Punto de rocio: 20.5 °C 10.9 °C 13.6 °C
Humedad: 77% 29% 40%
Velocidad viento: 20.9km/h 2.3km/h 9.8km/h
Racha viento: 35.2km/h - -
Viento- - SSW
Presión: 1009.1 hPa 1006.2 hPa -
Precipitación: 0.0 mm    
Historical Graphs
 
 
Tabla de datos para Julio 28, 2019
Hora Temperatura Punto de rocio Presión Viento Velocidad viento Racha viento Humedad Intensidad lluvia(por hora) Nubes
00:04 29.8 °C 13.9 °C 1006.3 hPa NW 16.1 km/h 29.6 km/h 38% 0.0 mm CLR
00:09 29.7 °C 13.9 °C 1006.3 hPa NW 19.8 km/h 25.9 km/h 38% 0.0 mm CLR
00:14 29.6 °C 13.8 °C 1006.3 hPa WNW 19.8 km/h 22.2 km/h 38% 0.0 mm CLR
00:19 29.4 °C 14.0 °C 1006.2 hPa WNW 16.4 km/h 29.6 km/h 39% 0.0 mm CLR
00:24 29.4 °C 14.0 °C 1006.2 hPa WNW 16.4 km/h 29.6 km/h 39% 0.0 mm CLR
00:29 29.4 °C 14.0 °C 1006.2 hPa NW 20.9 km/h 35.2 km/h 39% 0.0 mm CLR
00:34 29.4 °C 14.0 °C 1006.2 hPa WNW 20.9 km/h 27.8 km/h 39% 0.0 mm CLR
00:39 29.3 °C 13.9 °C 1006.2 hPa NW 16.4 km/h 20.4 km/h 39% 0.0 mm CLR
00:44 29.3 °C 13.9 °C 1006.2 hPa NW 16.4 km/h 24.1 km/h 39% 0.0 mm CLR
00:49 29.2 °C 13.8 °C 1006.4 hPa West 14.8 km/h 33.3 km/h 39% 0.0 mm CLR
00:54 29.1 °C 13.7 °C 1006.4 hPa WNW 14.8 km/h 33.3 km/h 39% 0.0 mm CLR
00:59 29.1 °C 13.7 °C 1006.4 hPa WNW 19.8 km/h 22.2 km/h 39% 0.0 mm CLR
01:04 28.9 °C 13.9 °C 1006.2 hPa WNW 19.8 km/h 29.6 km/h 40% 0.0 mm CLR
01:09 28.9 °C 13.6 °C 1006.2 hPa WNW 18.3 km/h 27.8 km/h 39% 0.0 mm CLR
01:14 28.9 °C 13.9 °C 1006.2 hPa WNW 18.3 km/h 25.9 km/h 40% 0.0 mm CLR
01:19 28.8 °C 13.4 °C 1006.4 hPa WNW 16.4 km/h 22.2 km/h 39% 0.0 mm CLR
01:24 28.7 °C 13.4 °C 1006.4 hPa NW 16.4 km/h 24.1 km/h 39% 0.0 mm CLR
01:29 28.7 °C 13.4 °C 1006.4 hPa West 16.1 km/h 25.9 km/h 39% 0.0 mm CLR
01:34 28.7 °C 13.4 °C 1006.5 hPa West 16.1 km/h 25.9 km/h 39% 0.0 mm CLR
01:39 28.7 °C 13.0 °C 1006.5 hPa WNW 17.2 km/h 25.9 km/h 38% 0.0 mm CLR
01:44 28.7 °C 13.0 °C 1006.5 hPa WSW 17.2 km/h 22.2 km/h 38% 0.0 mm CLR
01:49 28.6 °C 12.9 °C 1006.5 hPa WNW 16.4 km/h 27.8 km/h 38% 0.0 mm CLR
01:54 28.6 °C 12.9 °C 1006.5 hPa WSW 16.4 km/h 16.7 km/h 38% 0.0 mm CLR
01:59 28.5 °C 12.8 °C 1006.5 hPa WNW 12.2 km/h 27.8 km/h 38% 0.0 mm CLR
02:04 28.4 °C 12.7 °C 1006.5 hPa WSW 12.2 km/h 13.0 km/h 38% 0.0 mm CLR
02:09 28.4 °C 12.7 °C 1006.5 hPa West 11.9 km/h 14.8 km/h 38% 0.0 mm CLR
02:14 28.3 °C 12.6 °C 1006.5 hPa WNW 11.9 km/h 18.5 km/h 38% 0.0 mm CLR
02:19 28.2 °C 12.6 °C 1006.4 hPa WNW 10.3 km/h 16.4 km/h 38% 0.0 mm CLR
02:24 28.2 °C 12.9 °C 1006.4 hPa WNW 10.3 km/h 13.0 km/h 39% 0.0 mm CLR
02:29 28.1 °C 12.8 °C 1006.4 hPa WNW 8.7 km/h 5.8 km/h 39% 0.0 mm CLR
02:34 28.1 °C 12.8 °C 1006.5 hPa WSW 8.7 km/h 5.6 km/h 39% 0.0 mm CLR
02:39 28.0 °C 12.8 °C 1006.5 hPa WSW 3.9 km/h 9.5 km/h 39% 0.0 mm CLR
02:44 27.9 °C 12.7 °C 1006.5 hPa SSW 3.9 km/h 7.6 km/h 39% 0.0 mm CLR
02:49 27.9 °C 12.7 °C 1006.6 hPa WSW 6.4 km/h 11.1 km/h 39% 0.0 mm CLR
02:54 27.9 °C 12.7 °C 1006.6 hPa WSW 6.4 km/h 8.7 km/h 39% 0.0 mm CLR
02:59 27.8 °C 12.6 °C 1006.6 hPa SW 7.6 km/h 11.1 km/h 39% 0.0 mm CLR
03:04 27.8 °C 12.6 °C 1006.3 hPa WSW 7.6 km/h 18.5 km/h 39% 0.0 mm CLR
03:09 27.8 °C 12.6 °C 1006.3 hPa West 10.3 km/h 13.0 km/h 39% 0.0 mm CLR
03:14 27.7 °C 12.5 °C 1006.3 hPa WSW 10.3 km/h 16.7 km/h 39% 0.0 mm CLR
03:19 27.6 °C 12.4 °C 1006.3 hPa West 10.0 km/h 16.7 km/h 39% 0.0 mm CLR
03:24 27.5 °C 12.3 °C 1006.3 hPa WSW 10.0 km/h 13.0 km/h 39% 0.0 mm CLR
03:29 27.4 °C 12.6 °C 1006.3 hPa WSW 10.0 km/h 14.8 km/h 40% 0.0 mm CLR
03:34 27.3 °C 12.5 °C 1006.3 hPa West 10.0 km/h 11.1 km/h 40% 0.0 mm CLR
03:39 27.3 °C 12.5 °C 1006.3 hPa NW 8.4 km/h 11.1 km/h 40% 0.0 mm CLR
03:44 27.2 °C 12.4 °C 1006.3 hPa NW 8.4 km/h 3.9 km/h 40% 0.0 mm CLR
03:49 27.2 °C 12.4 °C 1006.3 hPa NW 3.2 km/h 5.6 km/h 40% 0.0 mm CLR
03:54 27.1 °C 12.7 °C 1006.3 hPa West 3.2 km/h 5.8 km/h 41% 0.0 mm CLR
03:59 26.9 °C 12.6 °C 1006.3 hPa NW 3.9 km/h 9.3 km/h 41% 0.0 mm CLR
04:04 26.8 °C 12.8 °C 1006.4 hPa West 3.9 km/h 6.9 km/h 42% 0.0 mm CLR
04:09 26.7 °C 12.7 °C 1006.4 hPa SW 4.7 km/h 9.3 km/h 42% 0.0 mm CLR
04:14 26.7 °C 12.7 °C 1006.4 hPa South 4.7 km/h 5.6 km/h 42% 0.0 mm CLR
04:19 26.7 °C 12.7 °C 1006.3 hPa SW 3.9 km/h 11.1 km/h 42% 0.0 mm CLR
04:24 26.7 °C 12.7 °C 1006.3 hPa SSE 3.9 km/h 13.0 km/h 42% 0.0 mm CLR
04:29 26.7 °C 12.3 °C 1006.3 hPa SW 8.4 km/h 9.3 km/h 41% 0.0 mm CLR
04:34 26.7 °C 12.3 °C 1006.4 hPa South 8.4 km/h 11.1 km/h 41% 0.0 mm CLR
04:39 26.6 °C 12.6 °C 1006.4 hPa West 6.9 km/h 7.4 km/h 42% 0.0 mm CLR
04:44 26.6 °C 12.6 °C 1006.4 hPa WNW 6.9 km/h 6.9 km/h 42% 0.0 mm CLR
04:49 26.6 °C 13.0 °C 1006.4 hPa WNW 5.8 km/h 9.3 km/h 43% 0.0 mm CLR
04:54 26.6 °C 13.0 °C 1006.4 hPa West 5.8 km/h 7.4 km/h 43% 0.0 mm CLR
04:59 26.5 °C 12.9 °C 1006.4 hPa NW 5.8 km/h 7.4 km/h 43% 0.0 mm CLR
05:04 26.4 °C 12.8 °C 1006.5 hPa West 5.8 km/h 9.3 km/h 43% 0.0 mm CLR
05:09 26.5 °C 12.9 °C 1006.5 hPa WNW 6.9 km/h 13.0 km/h 43% 0.0 mm CLR
05:14 26.5 °C 12.9 °C 1006.5 hPa West 6.9 km/h 13.0 km/h 43% 0.0 mm CLR
05:19 26.4 °C 12.8 °C 1006.5 hPa WSW 7.6 km/h 9.3 km/h 43% 0.0 mm CLR
05:24 26.3 °C 12.7 °C 1006.5 hPa West 7.6 km/h 11.1 km/h 43% 0.0 mm CLR
05:29 26.3 °C 12.7 °C 1006.5 hPa West 5.8 km/h 18.0 km/h 43% 0.0 mm CLR
05:34 26.4 °C 12.8 °C 1006.6 hPa West 5.8 km/h 11.1 km/h 43% 0.0 mm CLR
05:39 26.4 °C 12.8 °C 1006.6 hPa NW 8.4 km/h 9.3 km/h 43% 0.0 mm CLR
05:44 26.3 °C 12.7 °C 1006.6 hPa WNW 8.4 km/h 9.3 km/h 43% 0.0 mm CLR
05:49 26.3 °C 13.1 °C 1006.8 hPa NW 6.9 km/h 14.8 km/h 44% 0.0 mm CLR
05:54 26.3 °C 13.1 °C 1006.8 hPa WNW 6.9 km/h 11.1 km/h 44% 0.0 mm CLR
05:59 26.2 °C 13.0 °C 1006.8 hPa NNW 8.7 km/h 14.8 km/h 44% 0.0 mm CLR
06:04 26.2 °C 13.0 °C 1006.8 hPa WNW 8.7 km/h 13.0 km/h 44% 0.0 mm CLR
06:09 26.2 °C 13.0 °C 1006.8 hPa SW 8.7 km/h 7.4 km/h 44% 0.0 mm CLR
06:14 26.1 °C 12.9 °C 1006.8 hPa WSW 8.7 km/h 7.4 km/h 44% 0.0 mm CLR
06:19 26.0 °C 12.8 °C 1007.0 hPa WSW 3.9 km/h 5.6 km/h 44% 0.0 mm CLR
06:24 25.9 °C 12.7 °C 1007.0 hPa SW 3.9 km/h 5.6 km/h 44% 0.0 mm CLR
06:29 25.9 °C 12.7 °C 1007.0 hPa SW 3.2 km/h   44% 0.0 mm CLR
06:34 25.9 °C 13.1 °C 1007.2 hPa SW 3.2 km/h 3.7 km/h 45% 0.0 mm CLR
06:39 25.8 °C 12.3 °C 1007.2 hPa SW 2.9 km/h 7.4 km/h 43% 0.0 mm CLR
06:44 25.8 °C 12.3 °C 1007.2 hPa SW 2.9 km/h 7.4 km/h 43% 0.0 mm CLR
06:49 25.8 °C 12.3 °C 1007.4 hPa SSW 3.2 km/h 5.8 km/h 43% 0.0 mm CLR
06:54 25.8 °C 11.9 °C 1007.4 hPa SSW 3.2 km/h 7.4 km/h 42% 0.0 mm CLR
06:59 25.8 °C 12.3 °C 1007.4 hPa SW 5.8 km/h 9.3 km/h 43% 0.0 mm CLR
07:04 25.8 °C 11.9 °C 1007.4 hPa SW 5.8 km/h 10.0 km/h 42% 0.0 mm CLR
07:09 25.8 °C 12.3 °C 1007.4 hPa SW 6.9 km/h 11.1 km/h 43% 0.0 mm CLR
07:14 25.7 °C 12.2 °C 1007.4 hPa West 6.9 km/h 11.1 km/h 43% 0.0 mm CLR
07:19 25.7 °C 12.2 °C 1007.5 hPa SSW 8.4 km/h 9.3 km/h 43% 0.0 mm CLR
07:24 25.7 °C 12.2 °C 1007.5 hPa West 8.4 km/h 3.9 km/h 43% 0.0 mm CLR
07:29 25.6 °C 12.1 °C 1007.5 hPa SW 3.2 km/h 3.7 km/h 43% 0.0 mm CLR
07:34 25.7 °C 12.2 °C 1007.8 hPa NW 3.2 km/h 3.7 km/h 43% 0.0 mm CLR
07:39 25.7 °C 12.2 °C 1007.8 hPa WSW 2.3 km/h 7.4 km/h 43% 0.0 mm CLR
07:44 25.6 °C 12.1 °C 1007.8 hPa WNW 2.3 km/h 9.3 km/h 43% 0.0 mm CLR
07:49 25.6 °C 12.4 °C 1007.9 hPa WSW 3.9 km/h 7.4 km/h 44% 0.0 mm CLR
07:54 25.4 °C 12.3 °C 1007.9 hPa WSW 3.9 km/h 7.4 km/h 44% 0.0 mm CLR
07:59 25.4 °C 12.3 °C 1007.9 hPa SW 5.8 km/h 7.4 km/h 44% 0.0 mm CLR
08:04 25.3 °C 12.2 °C 1008.0 hPa SSW 5.8 km/h 7.4 km/h 44% 0.0 mm CLR
08:09 25.4 °C 12.6 °C 1008.0 hPa SSW 5.0 km/h 7.6 km/h 45% 0.0 mm CLR
08:14 25.4 °C 12.6 °C 1008.0 hPa SSW 5.0 km/h 3.7 km/h 45% 0.0 mm CLR
08:19 25.6 °C 12.8 °C 1008.1 hPa WSW 3.2 km/h 3.9 km/h 45% 0.0 mm CLR
08:24 25.8 °C 13.3 °C 1008.1 hPa SE 3.2 km/h 5.6 km/h 46% 0.0 mm CLR
08:29 26.0 °C 13.2 °C 1008.1 hPa South 3.2 km/h 9.3 km/h 45% 0.0 mm CLR
08:34 26.1 °C 13.2 °C 1008.3 hPa SSE 3.2 km/h 11.1 km/h 45% 0.0 mm CLR
08:39 26.0 °C 13.2 °C 1008.3 hPa SSE 7.6 km/h 9.3 km/h 45% 0.0 mm CLR
08:44 26.1 °C 12.9 °C 1008.3 hPa SSW 7.6 km/h 10.0 km/h 44% 0.0 mm CLR
08:49 26.2 °C 13.0 °C 1008.4 hPa SW 6.4 km/h 8.4 km/h 44% 0.0 mm CLR
08:54 26.4 °C 13.2 °C 1008.4 hPa WNW 6.4 km/h 14.8 km/h 44% 0.0 mm CLR
08:59 26.6 °C 13.3 °C 1008.4 hPa WSW 6.9 km/h 11.1 km/h 44% 0.0 mm CLR
09:04 26.7 °C 13.4 °C 1008.4 hPa SW 6.9 km/h 16.7 km/h 44% 0.0 mm CLR
09:09 26.8 °C 13.5 °C 1008.4 hPa WSW 7.6 km/h 13.0 km/h 44% 0.0 mm CLR
09:14 26.9 °C 13.6 °C 1008.4 hPa NW 7.6 km/h 7.4 km/h 44% 0.0 mm CLR
09:19 27.2 °C 13.9 °C 1008.4 hPa NW 7.6 km/h 13.0 km/h 44% 0.0 mm CLR
09:24 27.2 °C 13.6 °C 1008.4 hPa WNW 7.6 km/h 9.3 km/h 43% 0.0 mm CLR
09:29 27.3 °C 13.6 °C 1008.4 hPa NW 8.7 km/h 13.7 km/h 43% 0.0 mm CLR
09:34 27.3 °C 13.6 °C 1008.5 hPa WNW 8.7 km/h 24.1 km/h 43% 0.0 mm CLR
09:39 27.5 °C 13.4 °C 1008.5 hPa WSW 12.2 km/h 18.5 km/h 42% 0.0 mm CLR
09:44 27.6 °C 13.6 °C 1008.5 hPa WNW 12.2 km/h 22.2 km/h 42% 0.0 mm CLR
09:49 27.6 °C 13.6 °C 1008.6 hPa West 15.6 km/h 18.5 km/h 42% 0.0 mm CLR
09:54 27.8 °C 13.3 °C 1008.6 hPa WNW 15.6 km/h 18.5 km/h 41% 0.0 mm CLR
09:59 27.8 °C 13.3 °C 1008.6 hPa West 10.0 km/h 13.7 km/h 41% 0.0 mm CLR
10:04 27.9 °C 13.1 °C 1008.6 hPa NW 10.0 km/h 11.1 km/h 40% 0.0 mm CLR
10:09 27.9 °C 13.1 °C 1008.6 hPa WNW 9.5 km/h 15.6 km/h 40% 0.0 mm CLR
10:14 27.9 °C 13.1 °C 1008.6 hPa West 9.5 km/h 18.5 km/h 40% 0.0 mm CLR
10:19 27.9 °C 13.1 °C 1008.6 hPa WSW 10.0 km/h 11.1 km/h 40% 0.0 mm CLR
10:24 28.0 °C 13.2 °C 1008.6 hPa NNW 10.0 km/h 7.4 km/h 40% 0.0 mm CLR
10:29 28.1 °C 13.2 °C 1008.6 hPa NNE 6.9 km/h 9.3 km/h 40% 0.0 mm CLR
10:34 28.3 °C 13.0 °C 1008.6 hPa NW 6.9 km/h 7.4 km/h 39% 0.0 mm CLR
10:39 28.7 °C 13.4 °C 1008.6 hPa ENE 4.7 km/h 7.4 km/h 39% 0.0 mm CLR
10:44 28.9 °C 13.2 °C 1008.6 hPa WSW 4.7 km/h 7.4 km/h 38% 0.0 mm CLR
10:49 29.0 °C 12.8 °C 1008.6 hPa WSW 5.0 km/h 7.4 km/h 37% 0.0 mm CLR
10:54 29.1 °C 12.9 °C 1008.6 hPa SW 5.0 km/h 7.6 km/h 37% 0.0 mm CLR
10:59 29.1 °C 12.9 °C 1008.6 hPa SSW 3.9 km/h 9.3 km/h 37% 0.0 mm CLR
11:04 29.2 °C 13.0 °C 1008.6 hPa West 3.9 km/h 11.1 km/h 37% 0.0 mm CLR
11:09 29.3 °C 13.1 °C 1008.6 hPa SE 5.0 km/h 7.4 km/h 37% 0.0 mm CLR
11:14 29.5 °C 12.8 °C 1008.6 hPa SSW 5.0 km/h 3.7 km/h 36% 0.0 mm CLR
11:19 29.8 °C 13.1 °C 1008.6 hPa ENE 4.7 km/h 7.4 km/h 36% 0.0 mm CLR
11:24 30.0 °C 12.9 °C 1008.6 hPa NNW 4.7 km/h 13.0 km/h 35% 0.0 mm CLR
11:29 30.2 °C 13.1 °C 1008.6 hPa NNW 5.0 km/h 9.3 km/h 35% 0.0 mm CLR
11:34 30.2 °C 13.1 °C 1008.5 hPa ENE 5.0 km/h 8.7 km/h 35% 0.0 mm CLR
11:39 30.2 °C 13.1 °C 1008.5 hPa NE 4.7 km/h 9.3 km/h 35% 0.0 mm CLR
11:44 30.3 °C 12.7 °C 1008.5 hPa WNW 4.7 km/h 9.3 km/h 34% 0.0 mm CLR
11:49 30.3 °C 12.7 °C 1008.5 hPa SSW 5.0 km/h 3.7 km/h 34% 0.0 mm CLR
11:54 30.4 °C 12.8 °C 1008.5 hPa SE 5.0 km/h 7.4 km/h 34% 0.0 mm CLR
11:59 30.5 °C 12.4 °C 1008.5 hPa South 4.7 km/h 11.1 km/h 33% 0.0 mm CLR
12:04 30.4 °C 12.3 °C 1008.4 hPa SSW 4.7 km/h 7.4 km/h 33% 0.0 mm CLR
12:09 30.4 °C 11.8 °C 1008.4 hPa SE 6.4 km/h 13.0 km/h 32% 0.0 mm CLR
12:14 30.4 °C 11.8 °C 1008.4 hPa NW 6.4 km/h 7.4 km/h 32% 0.0 mm CLR
12:19 30.4 °C 12.3 °C 1008.4 hPa NW 5.0 km/h 7.4 km/h 33% 0.0 mm CLR
12:24 30.3 °C 11.8 °C 1008.4 hPa WSW 5.0 km/h 7.4 km/h 32% 0.0 mm CLR
12:29 30.6 °C 12.0 °C 1008.4 hPa NE 5.0 km/h 9.3 km/h 32% 0.0 mm CLR
12:34 30.8 °C 11.2 °C 1008.3 hPa SE 5.0 km/h 11.1 km/h 30% 0.0 mm CLR
12:39 30.9 °C 11.3 °C 1008.3 hPa East 6.4 km/h 9.3 km/h 30% 0.0 mm CLR
12:44 30.9 °C 11.3 °C 1008.3 hPa SSW 6.4 km/h 7.4 km/h 30% 0.0 mm CLR
12:49 31.1 °C 10.9 °C 1008.2 hPa ESE 5.0 km/h 11.1 km/h 29% 0.0 mm CLR
12:54 31.1 °C 11.5 °C 1008.2 hPa East 5.0 km/h 9.3 km/h 30% 0.0 mm CLR
12:59 31.1 °C 11.5 °C 1008.2 hPa East 6.9 km/h 6.9 km/h 30% 0.0 mm CLR
13:04 31.3 °C 11.1 °C 1008.2 hPa West 6.9 km/h 9.3 km/h 29% 0.0 mm CLR
13:09 31.3 °C 11.1 °C 1008.2 hPa SE 4.7 km/h 3.7 km/h 29% 0.0 mm CLR
13:14 31.4 °C 11.2 °C 1008.2 hPa WNW 4.7 km/h 11.1 km/h 29% 0.0 mm CLR
13:19 31.4 °C 11.7 °C 1008.0 hPa NNW 5.8 km/h 7.4 km/h 30% 0.0 mm CLR
13:24 31.6 °C 11.4 °C 1008.0 hPa SW 5.8 km/h 7.4 km/h 29% 0.0 mm CLR
13:29 31.8 °C 11.6 °C 1008.0 hPa SW 4.7 km/h 9.3 km/h 29% 0.0 mm CLR
13:34 31.9 °C 11.7 °C 1007.8 hPa West 4.7 km/h 5.6 km/h 29% 0.0 mm CLR
13:39 32.1 °C 11.8 °C 1007.8 hPa ESE 5.0 km/h 7.6 km/h 29% 0.0 mm CLR
13:44 31.9 °C 11.7 °C 1007.8 hPa SE 5.0 km/h 7.4 km/h 29% 0.0 mm CLR
13:49 31.9 °C 15.0 °C 1007.8 hPa ESE 6.4 km/h 25.9 km/h 36% 0.0 mm CLR
13:54 31.5 °C 15.9 °C 1007.8 hPa SE 6.4 km/h 20.4 km/h 39% 0.0 mm CLR
13:59 31.5 °C 15.1 °C 1007.8 hPa SE 14.8 km/h 24.1 km/h 37% 0.0 mm CLR
14:04 31.6 °C 14.3 °C 1007.7 hPa ENE 14.8 km/h 18.5 km/h 35% 0.0 mm CLR
14:09 31.7 °C 15.6 °C 1007.7 hPa SE 11.1 km/h 27.8 km/h 38% 0.0 mm CLR
14:14 31.7 °C 16.1 °C 1007.7 hPa SE 11.1 km/h 20.4 km/h 39% 0.0 mm CLR
14:19 31.6 °C 15.6 °C 1007.5 hPa ESE 14.0 km/h 22.2 km/h 38% 0.0 mm CLR
14:24 31.5 °C 14.6 °C 1007.5 hPa SE 14.0 km/h 20.4 km/h 36% 0.0 mm CLR
14:29 31.4 °C 13.7 °C 1007.5 hPa ESE 13.0 km/h 13.0 km/h 34% 0.0 mm CLR
14:34 31.7 °C 14.3 °C 1007.4 hPa SE 13.0 km/h 9.3 km/h 35% 0.0 mm CLR
14:39 31.8 °C 15.3 °C 1007.4 hPa SE 8.7 km/h 29.6 km/h 37% 0.0 mm CLR
14:44 31.8 °C 15.3 °C 1007.4 hPa SE 8.7 km/h 16.7 km/h 37% 0.0 mm CLR
14:49 31.7 °C 15.2 °C 1007.4 hPa SSE 13.0 km/h 13.0 km/h 37% 0.0 mm CLR
14:54 31.7 °C 15.6 °C 1007.4 hPa SE 13.0 km/h 25.6 km/h 38% 0.0 mm CLR
14:59 31.9 °C 15.4 °C 1007.4 hPa South 13.0 km/h 20.4 km/h 37% 0.0 mm CLR
15:04 31.7 °C 15.2 °C 1007.4 hPa SSE 13.0 km/h 20.4 km/h 37% 0.0 mm CLR
15:09 31.6 °C 15.1 °C 1007.4 hPa ESE 14.8 km/h 25.9 km/h 37% 0.0 mm CLR
15:14 31.6 °C 15.1 °C 1007.4 hPa ESE 14.8 km/h 25.9 km/h 37% 0.0 mm CLR
15:19 31.8 °C 15.3 °C 1007.2 hPa SE 18.0 km/h 20.4 km/h 37% 0.0 mm CLR
15:22 31.9 °C 15.0 °C 1007.2 hPa SE 18.0 km/h 24.1 km/h 36% 0.0 mm CLR
17:34 32.0 °C 14.6 °C 1006.3 hPa SE 17.2 km/h 18.3 km/h 35% 0.0 mm CLR
17:39 32.1 °C 14.3 °C 1006.3 hPa East 16.4 km/h 29.6 km/h 34% 0.0 mm CLR
17:44 32.0 °C 14.2 °C 1006.3 hPa SE 16.4 km/h 25.9 km/h 34% 0.0 mm CLR
17:49 32.0 °C 13.7 °C 1006.3 hPa SSE 16.4 km/h 29.6 km/h 33% 0.0 mm CLR
17:54 32.1 °C 14.3 °C 1006.3 hPa SE 16.4 km/h 24.1 km/h 34% 0.0 mm CLR
17:59 31.9 °C 13.6 °C 1006.3 hPa SSE 18.3 km/h 25.9 km/h 33% 0.0 mm CLR
18:04 32.0 °C 13.7 °C 1006.4 hPa SE 18.3 km/h 25.6 km/h 33% 0.0 mm CLR
18:09 31.9 °C 13.6 °C 1006.4 hPa SSE 16.4 km/h 24.1 km/h 33% 0.0 mm CLR
18:14 31.8 °C 13.6 °C 1006.4 hPa SE 16.4 km/h 29.6 km/h 33% 0.0 mm CLR
18:19 31.9 °C 13.2 °C 1006.3 hPa ESE 18.0 km/h 24.5 km/h 32% 0.0 mm CLR
18:24 32.0 °C 13.2 °C 1006.3 hPa East 18.0 km/h 20.4 km/h 32% 0.0 mm CLR
18:29 32.1 °C 13.3 °C 1006.3 hPa ESE 17.2 km/h 24.1 km/h 32% 0.0 mm CLR
18:34 32.1 °C 13.3 °C 1006.3 hPa ENE 17.2 km/h 22.2 km/h 32% 0.0 mm CLR
18:39 31.9 °C 13.2 °C 1006.3 hPa SSE 15.6 km/h 25.9 km/h 32% 0.0 mm CLR
18:44 31.8 °C 13.6 °C 1006.3 hPa ESE 15.6 km/h 22.5 km/h 33% 0.0 mm CLR
18:49 31.7 °C 13.4 °C 1006.2 hPa SSE 17.2 km/h 22.2 km/h 33% 0.0 mm CLR
18:54 31.4 °C 13.2 °C 1006.2 hPa SE 17.2 km/h 31.5 km/h 33% 0.0 mm CLR
18:59 31.2 °C 13.5 °C 1006.2 hPa SE 19.8 km/h 25.9 km/h 34% 0.0 mm CLR
19:04 31.2 °C 13.5 °C 1006.3 hPa SE 19.8 km/h 22.2 km/h 34% 0.0 mm CLR
19:09 31.2 °C 13.5 °C 1006.3 hPa East 18.3 km/h 24.1 km/h 34% 0.0 mm CLR
19:14 31.2 °C 12.6 °C 1006.3 hPa SE 18.3 km/h 27.8 km/h 32% 0.0 mm CLR
19:19 31.2 °C 13.0 °C 1006.4 hPa SE 18.0 km/h 31.5 km/h 33% 0.0 mm CLR
19:24 31.0 °C 12.4 °C 1006.4 hPa ESE 18.0 km/h 27.8 km/h 32% 0.0 mm CLR
19:29 31.0 °C 12.4 °C 1006.4 hPa ENE 18.3 km/h 29.6 km/h 32% 0.0 mm CLR
19:34 31.0 °C 13.3 °C 1006.6 hPa ESE 18.3 km/h 27.8 km/h 34% 0.0 mm CLR
19:39 30.9 °C 13.2 °C 1006.6 hPa SE 18.0 km/h 33.3 km/h 34% 0.0 mm CLR
19:44 30.9 °C 13.7 °C 1006.6 hPa ESE 18.0 km/h 25.9 km/h 35% 0.0 mm CLR
19:49 30.9 °C 14.1 °C 1006.7 hPa SSE 16.1 km/h 16.7 km/h 36% 0.0 mm CLR
19:54 30.9 °C 13.7 °C 1006.7 hPa SE 16.1 km/h 25.1 km/h 35% 0.0 mm CLR
19:59 30.8 °C 13.6 °C 1006.7 hPa ESE 13.0 km/h 26.2 km/h 35% 0.0 mm CLR
20:04 30.8 °C 13.6 °C 1006.9 hPa SE 13.0 km/h 20.4 km/h 35% 0.0 mm CLR
20:09 30.7 °C 13.9 °C 1006.9 hPa East 13.0 km/h 14.0 km/h 36% 0.0 mm CLR
20:14 30.7 °C 13.5 °C 1006.9 hPa SSW 13.0 km/h 22.2 km/h 35% 0.0 mm CLR
20:19 30.6 °C 13.4 °C 1006.9 hPa SSE 13.0 km/h 22.2 km/h 35% 0.0 mm CLR
20:24 30.6 °C 13.4 °C 1006.9 hPa SSE 13.0 km/h 16.7 km/h 35% 0.0 mm CLR
20:29 30.6 °C 13.8 °C 1006.9 hPa SE 10.3 km/h 13.0 km/h 36% 0.0 mm CLR
20:34 30.4 °C 13.7 °C 1007.1 hPa SSE 10.3 km/h 18.5 km/h 36% 0.0 mm CLR
20:39 30.3 °C 14.0 °C 1007.1 hPa SSE 10.3 km/h 15.6 km/h 37% 0.0 mm CLR
20:44 30.1 °C 14.2 °C 1007.1 hPa South 10.3 km/h 13.0 km/h 38% 0.0 mm CLR
20:49 30.0 °C 14.1 °C 1007.2 hPa South 11.1 km/h 13.0 km/h 38% 0.0 mm CLR
20:54 29.9 °C 14.4 °C 1007.2 hPa SE 11.1 km/h 14.8 km/h 39% 0.0 mm CLR
20:59 29.8 °C 14.3 °C 1007.2 hPa SE 10.3 km/h 13.0 km/h 39% 0.0 mm CLR
21:04 29.7 °C 14.3 °C 1007.3 hPa SSE 10.3 km/h 11.1 km/h 39% 0.0 mm CLR
21:09 29.6 °C 14.6 °C 1007.3 hPa SSW 9.5 km/h 16.7 km/h 40% 0.0 mm CLR
21:14 29.4 °C 14.4 °C 1007.3 hPa ESE 9.5 km/h 18.5 km/h 40% 0.0 mm CLR
21:19 29.4 °C 14.4 °C 1007.4 hPa South 11.9 km/h 16.7 km/h 40% 0.0 mm CLR
21:24 29.2 °C 14.6 °C 1007.4 hPa South 11.9 km/h 20.4 km/h 41% 0.0 mm CLR
21:29 29.1 °C 14.5 °C 1007.4 hPa SE 14.8 km/h 18.5 km/h 41% 0.0 mm CLR
21:34 29.1 °C 14.1 °C 1007.7 hPa SSE 14.8 km/h 16.7 km/h 40% 0.0 mm CLR
21:39 29.1 °C 13.7 °C 1007.7 hPa ESE 12.2 km/h 14.8 km/h 39% 0.0 mm CLR
21:44 29.1 °C 13.7 °C 1007.7 hPa SE 12.2 km/h 13.0 km/h 39% 0.0 mm CLR
21:49 29.1 °C 13.7 °C 1007.8 hPa SE 11.1 km/h 13.0 km/h 39% 0.0 mm CLR
21:54 29.0 °C 13.7 °C 1007.8 hPa WNW 11.1 km/h 5.6 km/h 39% 0.0 mm CLR
21:59 28.9 °C 13.6 °C 1007.8 hPa NW 5.8 km/h 7.4 km/h 39% 0.0 mm CLR
22:04 28.9 °C 13.6 °C 1007.9 hPa NE 5.8 km/h 5.6 km/h 39% 0.0 mm CLR
22:09 28.8 °C 13.4 °C 1007.9 hPa East 2.9 km/h 5.8 km/h 39% 0.0 mm CLR
22:14 28.8 °C 13.8 °C 1007.9 hPa NNE 2.9 km/h 9.3 km/h 40% 0.0 mm CLR
22:19 28.7 °C 13.8 °C 1008.3 hPa NE 5.8 km/h 7.4 km/h 40% 0.0 mm CLR
22:24 28.6 °C 14.1 °C 1008.3 hPa NE 5.8 km/h 3.9 km/h 41% 0.0 mm CLR
22:29 28.6 °C 14.1 °C 1008.3 hPa NNE 3.9 km/h 7.4 km/h 41% 0.0 mm CLR
22:34 28.3 °C 15.6 °C 1008.6 hPa NE 3.9 km/h 13.0 km/h 46% 0.0 mm CLR
22:39 27.6 °C 16.8 °C 1008.6 hPa NE 8.4 km/h 13.0 km/h 52% 0.0 mm CLR
22:44 27.2 °C 17.7 °C 1008.6 hPa NNE 8.4 km/h 11.1 km/h 56% 0.0 mm CLR
22:49 26.9 °C 18.2 °C 1008.8 hPa North 8.7 km/h 9.3 km/h 59% 0.0 mm CLR
22:54 26.7 °C 18.8 °C 1008.8 hPa NNE 8.7 km/h 13.7 km/h 62% 0.0 mm CLR
22:59 26.4 °C 19.1 °C 1008.8 hPa NE 9.5 km/h 14.8 km/h 64% 0.0 mm CLR
23:04 26.2 °C 19.1 °C 1008.9 hPa NNE 9.5 km/h 11.9 km/h 65% 0.0 mm CLR
23:09 26.1 °C 19.5 °C 1008.9 hPa NE 10.0 km/h 16.7 km/h 67% 0.0 mm CLR
23:14 25.9 °C 19.6 °C 1008.9 hPa NNE 10.0 km/h 16.7 km/h 68% 0.0 mm CLR
23:19 25.7 °C 19.6 °C 1008.9 hPa NE 11.9 km/h 14.8 km/h 69% 0.0 mm CLR
23:24 25.6 °C 19.7 °C 1008.9 hPa NE 11.9 km/h 16.7 km/h 70% 0.0 mm CLR
23:29 25.4 °C 20.0 °C 1008.9 hPa NNE 10.3 km/h 18.5 km/h 72% 0.0 mm CLR
23:34 25.3 °C 20.1 °C 1009.1 hPa NNE 10.3 km/h 20.9 km/h 73% 0.0 mm CLR
23:39 25.2 °C 20.2 °C 1009.1 hPa NNE 13.0 km/h 18.3 km/h 74% 0.0 mm CLR
23:44 25.1 °C 20.3 °C 1009.1 hPa North 13.0 km/h 24.1 km/h 75% 0.0 mm CLR
23:49 25.0 °C 20.3 °C 1009.1 hPa North 13.0 km/h 16.4 km/h 75% 0.0 mm CLR
23:54 24.9 °C 20.4 °C 1009.1 hPa NNE 13.0 km/h 15.6 km/h 76% 0.0 mm CLR
23:59 24.8 °C 20.5 °C 1009.1 hPa NNE 13.0 km/h 18.5 km/h 77% 0.0 mm CLR
Murcia-Puente Tocinos, España
Compliments of Weather Underground - 2.75 mb

La estación de MeteoMurcia.com, publica sus datos en los siguientes proyectos:

Weather Underground PWS IMURCIAP2 Meteoclimatic www.awekas.at

W3Counter
Web Analytics